Total_Precipitation_Accumulation
0.38 0.53 0.75 1.00 1.27 1.44 1.50 1.60 1.74 1.92 2.10 2.38 2.68 2.81 2.89 3.14 3.27 3.36 3.50 3.47 3.39 3.46 3.48 3.38 3.28 3.15 3.00 2.84 2.74 2.58 2.39 2.19 2.10 1.97 1.67 1.35 1.15 1.16 1.13 1.12 1.18 1.18 1.11
0.53 0.81 1.07 1.44 1.62 1.68 1.68 1.75 1.85 2.09 2.36 2.70 3.11 3.53 3.72 3.89 3.93 3.98 4.16 4.25 4.27 4.39 4.49 4.38 4.17 3.96 3.58 3.15 2.85 2.64 2.49 2.27 2.20 2.10 2.01 1.59 1.26 1.03 0.88 0.92 0.95 0.99 1.05
0.86 1.07 1.27 1.40 1.58 1.70 1.79 1.89 2.17 2.57 2.99 3.45 3.93 4.37 4.66 4.70 4.66 4.42 4.46 4.58 4.55 4.60 4.77 4.74 4.48 4.10 3.54 3.02 2.82 2.71 2.55 2.40 2.30 2.15 2.16 1.82 1.49 1.20 0.92 0.79 0.75 0.77 0.78
0.91 1.05 1.23 1.44 1.55 1.69 1.87 1.99 2.31 2.85 3.33 3.77 4.40 4.91 5.21 5.36 5.43 5.24 4.93 4.77 4.61 4.50 4.41 4.29 3.91 3.46 3.10 2.81 2.71 2.65 2.44 2.41 2.27 2.16 1.91 1.67 1.45 1.29 1.06 0.86 0.74 0.68 0.65
0.67 0.84 0.98 1.29 1.54 1.63 1.69 1.79 2.19 2.79 3.52 4.23 4.74 5.21 5.58 5.70 5.63 5.29 4.92 4.51 4.19 3.80 3.46 3.14 2.90 2.76 2.54 2.33 2.24 2.20 2.13 1.99 1.88 1.84 1.78 1.68 1.47 1.22 1.03 0.92 0.83 0.79 0.75
0.54 0.60 0.71 0.94 1.26 1.36 1.53 1.77 2.12 2.81 3.57 4.17 4.64 4.98 5.31 5.32 5.05 4.65 4.20 3.90 3.53 3.11 2.70 2.51 2.30 2.15 1.97 1.74 1.61 1.59 1.62 1.65 1.69 1.71 1.66 1.58 1.51 1.36 1.24 1.13 1.00 0.96 0.94
0.49 0.52 0.57 0.73 0.98 1.18 1.47 1.84 2.23 2.76 3.22 3.72 4.13 4.35 4.52 4.54 4.46 4.22 3.84 3.56 3.20 2.80 2.39 2.03 1.84 1.63 1.44 1.35 1.30 1.27 1.26 1.30 1.39 1.50 1.52 1.48 1.43 1.38 1.35 1.34 1.27 1.17 1.07
0.57 0.63 0.72 0.83 0.96 1.10 1.30 1.65 1.99 2.41 2.65 2.88 3.21 3.43 3.54 3.56 3.47 3.30 3.05 2.75 2.46 2.20 1.92 1.53 1.23 1.07 0.95 0.91 0.92 0.96 1.01 1.04 1.08 1.17 1.26 1.27 1.25 1.27 1.28 1.31 1.33 1.39 1.30
0.53 0.63 0.73 0.80 0.86 0.95 1.13 1.30 1.49 1.76 2.03 2.27 2.41 2.52 2.56 2.47 2.40 2.23 2.01 1.83 1.65 1.46 1.24 1.01 0.86 0.78 0.75 0.71 0.69 0.70 0.74 0.78 0.84 0.91 1.00 1.09 1.13 1.14 1.18 1.22 1.24 1.27 1.32
0.56 0.64 0.67 0.70 0.71 0.74 0.88 1.01 1.17 1.32 1.49 1.64 1.68 1.62 1.61 1.60 1.47 1.35 1.26 1.11 0.97 0.86 0.78 0.69 0.66 0.62 0.57 0.56 0.56 0.55 0.56 0.64 0.68 0.70 0.78 0.89 0.99 1.05 1.11 1.16 1.15 1.09 1.07
0.65 0.64 0.62 0.60 0.55 0.55 0.65 0.75 0.83 0.98 1.09 1.13 1.14 1.06 1.00 0.93 0.87 0.79 0.78 0.71 0.64 0.63 0.60 0.54 0.52 0.52 0.52 0.51 0.48 0.49 0.47 0.51 0.62 0.71 0.76 0.81 0.87 0.92 0.94 0.95 0.97 1.02 1.05
0.71 0.63 0.56 0.50 0.46 0.48 0.50 0.56 0.64 0.69 0.71 0.70 0.67 0.65 0.61 0.59 0.58 0.56 0.54 0.55 0.53 0.51 0.51 0.48 0.47 0.47 0.50 0.51 0.50 0.49 0.50 0.50 0.54 0.59 0.62 0.64 0.65 0.71 0.77 0.81 0.82 0.86 0.91
0.75 0.69 0.62 0.53 0.49 0.49 0.47 0.44 0.47 0.51 0.51 0.50 0.51 0.48 0.48 0.49 0.50 0.51 0.50 0.50 0.49 0.48 0.46 0.45 0.45 0.46 0.45 0.46 0.48 0.48 0.48 0.46 0.47 0.47 0.47 0.47 0.48 0.51 0.53 0.56 0.62 0.65 0.67
0.72 0.74 0.74 0.67 0.57 0.50 0.49 0.45 0.44 0.44 0.48 0.47 0.45 0.41 0.38 0.39 0.41 0.42 0.42 0.42 0.42 0.44 0.46 0.45 0.44 0.41 0.37 0.34 0.33 0.33 0.32 0.31 0.32 0.31 0.31 0.33 0.35 0.37 0.39 0.40 0.42 0.46 0.52
0.85 0.83 0.80 0.73 0.65 0.61 0.57 0.52 0.50 0.48 0.48 0.51 0.53 0.50 0.44 0.41 0.41 0.42 0.45 0.44 0.40 0.37 0.36 0.32 0.29 0.24 0.20 0.18 0.17 0.18 0.19 0.20 0.21 0.21 0.20 0.21 0.26 0.31 0.31 0.32 0.36 0.42 0.48
1.07 1.03 0.96 0.88 0.84 0.78 0.71 0.65 0.61 0.59 0.59 0.60 0.63 0.64 0.62 0.58 0.54 0.48 0.43 0.39 0.35 0.29 0.23 0.18 0.16 0.15 0.13 0.13 0.14 0.14 0.16 0.17 0.18 0.19 0.20 0.20 0.22 0.24 0.24 0.28 0.36 0.46 0.48
1.28 1.23 1.17 1.08 1.02 0.96 0.90 0.85 0.78 0.72 0.70 0.70 0.72 0.71 0.66 0.60 0.50 0.39 0.33 0.30 0.26 0.24 0.21 0.16 0.12 0.11 0.11 0.12 0.12 0.13 0.16 0.17 0.19 0.19 0.19 0.18 0.18 0.20 0.21 0.24 0.29 0.33 0.36
1.29 1.25 1.21 1.19 1.17 1.08 1.00 0.93 0.86 0.79 0.75 0.75 0.71 0.66 0.57 0.49 0.39 0.33 0.29 0.27 0.24 0.25 0.24 0.20 0.17 0.14 0.11 0.09 0.09 0.10 0.12 0.15 0.17 0.18 0.19 0.20 0.21 0.21 0.21 0.21 0.23 0.28 0.34
1.38 1.32 1.23 1.15 1.12 1.08 1.02 0.95 0.90 0.83 0.74 0.69 0.60 0.50 0.42 0.36 0.31 0.28 0.27 0.26 0.24 0.22 0.20 0.19 0.19 0.19 0.15 0.09 0.08 0.09 0.11 0.14 0.15 0.16 0.16 0.19 0.22 0.23 0.21 0.21 0.28 0.34 0.38
1.15 1.09 1.00 0.93 0.91 0.93 0.89 0.81 0.75 0.68 0.59 0.48 0.39 0.34 0.32 0.30 0.30 0.27 0.25 0.24 0.24 0.22 0.18 0.16 0.16 0.16 0.15 0.09 0.09 0.11 0.11 0.13 0.13 0.15 0.17 0.18 0.18 0.19 0.17 0.19 0.28 0.38 0.40
0.83 0.79 0.76 0.81 0.83 0.76 0.66 0.59 0.52 0.46 0.37 0.31 0.28 0.27 0.26 0.22 0.24 0.26 0.25 0.25 0.24 0.25 0.23 0.22 0.19 0.15 0.12 0.08 0.08 0.08 0.08 0.10 0.12 0.17 0.24 0.24 0.16 0.14 0.16 0.19 0.24 0.31 0.30
0.58 0.57 0.59 0.65 0.63 0.53 0.45 0.45 0.42 0.33 0.26 0.27 0.29 0.28 0.24 0.17 0.21 0.29 0.28 0.27 0.30 0.33 0.32 0.29 0.27 0.20 0.14 0.08 0.06 0.06 0.06 0.06 0.12 0.22 0.25 0.24 0.16 0.13 0.17 0.20 0.25 0.26 0.32
0.44 0.47 0.46 0.48 0.49 0.44 0.43 0.45 0.40 0.30 0.28 0.32 0.35 0.30 0.23 0.21 0.24 0.28 0.29 0.28 0.29 0.28 0.26 0.25 0.26 0.22 0.18 0.12 0.06 0.05 0.06 0.06 0.10 0.17 0.16 0.16 0.17 0.19 0.30 0.30 0.28 0.34 0.49
0.36 0.39 0.39 0.39 0.40 0.38 0.41 0.42 0.36 0.33 0.38 0.44 0.39 0.29 0.26 0.25 0.25 0.25 0.22 0.21 0.22 0.21 0.20 0.20 0.19 0.20 0.19 0.13 0.10 0.08 0.09 0.10 0.12 0.14 0.17 0.25 0.31 0.35 0.41 0.46 0.52 0.54 0.54
0.33 0.34 0.37 0.35 0.30 0.29 0.31 0.31 0.33 0.38 0.49 0.48 0.38 0.30 0.26 0.24 0.23 0.19 0.13 0.10 0.10 0.08 0.12 0.14 0.12 0.13 0.13 0.10 0.10 0.11 0.09 0.09 0.09 0.11 0.23 0.38 0.45 0.50 0.54 0.56 0.59 0.61 0.54
0.27 0.32 0.33 0.29 0.27 0.26 0.26 0.27 0.32 0.35 0.43 0.44 0.33 0.25 0.20 0.17 0.14 0.14 0.14 0.07 0.04 0.03 0.03 0.04 0.04 0.05 0.06 0.06 0.07 0.08 0.09 0.09 0.12 0.17 0.33 0.39 0.42 0.46 0.46 0.45 0.49 0.53 0.52